Time,TemperatureF,DewpointF,PressureIn,WindDirection,WindDirectionDegrees,WindSpeedMPH,WindSpeedGustMPH,Humidity,HourlyPrecipIn,Conditions,Clouds,dailyrainin,SoftwareType,DateUTC
2013-03-06 00:02:00,21.9,15.3,29.42,NNE,22,3.0,6.0,75,0.00,,,0.00,meteohub,2013-03-06 06:02:00,
2013-03-06 00:07:00,22.1,15.4,29.42,NNE,22,4.0,5.0,75,0.00,,,0.00,meteohub,2013-03-06 06:07:00,
2013-03-06 00:12:00,22.1,15.4,29.42,NNE,22,3.0,4.0,75,0.00,,,0.00,meteohub,2013-03-06 06:12:00,
2013-03-06 00:17:00,22.1,15.4,29.42,NNE,22,3.0,4.0,75,0.00,,,0.00,meteohub,2013-03-06 06:17:00,
2013-03-06 00:22:00,22.1,15.4,29.42,NNE,22,2.0,4.0,75,0.00,,,0.00,meteohub,2013-03-06 06:22:00,
2013-03-06 00:27:00,22.1,15.4,29.42,NNE,22,2.0,3.0,75,0.00,,,0.00,meteohub,2013-03-06 06:27:00,
2013-03-06 00:32:00,22.1,15.4,29.42,NNE,22,3.0,3.0,75,0.00,,,0.00,meteohub,2013-03-06 06:32:00,
2013-03-06 00:37:00,22.1,15.4,29.42,NNE,22,3.0,3.0,75,0.00,,,0.00,meteohub,2013-03-06 06:37:00,
2013-03-06 00:42:00,22.3,15.8,29.42,NW,315,2.0,3.0,76,0.00,,,0.00,meteohub,2013-03-06 06:42:00,
2013-03-06 00:47:00,22.3,15.8,29.45,North,0,3.0,3.0,76,0.00,,,0.00,meteohub,2013-03-06 06:47:00,
2013-03-06 00:52:00,22.5,16.0,29.45,NNE,22,4.0,4.0,76,0.00,,,0.00,meteohub,2013-03-06 06:52:00,
2013-03-06 00:57:00,22.5,16.0,29.45,North,0,1.0,4.0,76,0.00,,,0.00,meteohub,2013-03-06 06:57:00,
2013-03-06 01:02:00,22.6,16.2,29.45,NNW,338,4.0,6.0,76,0.00,,,0.00,meteohub,2013-03-06 07:02:00,
2013-03-06 01:07:00,22.6,16.2,29.45,North,0,1.0,6.0,76,0.00,,,0.00,meteohub,2013-03-06 07:07:00,
2013-03-06 01:12:00,22.6,16.2,29.45,WNW,292,2.0,6.0,76,0.00,,,0.00,meteohub,2013-03-06 07:12:00,
2013-03-06 01:17:00,22.6,16.2,29.45,NNW,338,2.0,5.0,76,0.00,,,0.00,meteohub,2013-03-06 07:17:00,
2013-03-06 01:22:00,22.8,16.3,29.45,WNW,292,4.0,5.0,76,0.00,,,0.00,meteohub,2013-03-06 07:22:00,
2013-03-06 01:27:00,22.8,16.7,29.45,North,0,2.0,5.0,77,0.00,,,0.00,meteohub,2013-03-06 07:27:00,
2013-03-06 01:32:00,22.8,16.7,29.45,NNW,338,2.0,5.0,77,0.00,,,0.00,meteohub,2013-03-06 07:32:00,
2013-03-06 01:37:00,22.8,16.7,29.45,NNE,22,3.0,5.0,77,0.00,,,0.00,meteohub,2013-03-06 07:37:00,
2013-03-06 01:42:00,23.0,16.9,29.45,NNW,338,3.0,6.0,77,0.00,,,0.00,meteohub,2013-03-06 07:42:00,
2013-03-06 01:47:00,23.0,16.9,29.45,North,0,5.0,6.0,77,0.00,,,0.00,meteohub,2013-03-06 07:47:00,
2013-03-06 01:52:00,23.0,16.9,29.45,NNW,338,2.0,5.0,77,0.00,,,0.00,meteohub,2013-03-06 07:52:00,
2013-03-06 01:57:00,23.0,16.9,29.45,NNE,22,1.0,5.0,77,0.00,,,0.00,meteohub,2013-03-06 07:57:00,
2013-03-06 02:02:00,23.0,16.9,29.45,NNE,22,4.0,5.0,77,0.00,,,0.00,meteohub,2013-03-06 08:02:00,
2013-03-06 02:07:00,23.0,17.2,29.45,NNE,22,2.0,4.0,78,0.00,,,0.00,meteohub,2013-03-06 08:07:00,
2013-03-06 02:12:00,23.0,17.2,29.45,NW,315,3.0,4.0,78,0.00,,,0.00,meteohub,2013-03-06 08:12:00,
2013-03-06 02:17:00,23.0,17.2,29.45,NNE,22,2.0,4.0,78,0.00,,,0.00,meteohub,2013-03-06 08:17:00,
2013-03-06 02:22:00,23.0,17.2,29.45,NNE,22,4.0,4.0,78,0.00,,,0.00,meteohub,2013-03-06 08:22:00,
2013-03-06 02:27:00,23.0,17.2,29.45,NNW,338,3.0,6.0,78,0.00,,,0.00,meteohub,2013-03-06 08:27:00,
2013-03-06 02:32:00,23.2,17.1,29.45,North,0,3.0,6.0,77,0.00,,,0.00,meteohub,2013-03-06 08:32:00,
2013-03-06 02:37:00,23.2,17.1,29.45,NNE,22,3.0,6.0,77,0.00,,,0.00,meteohub,2013-03-06 08:37:00,
2013-03-06 02:42:00,23.2,17.1,29.45,NNE,22,4.0,5.0,77,0.00,,,0.00,meteohub,2013-03-06 08:42:00,
2013-03-06 02:47:00,23.2,16.7,29.45,NNE,22,2.0,6.0,76,0.00,,,0.00,meteohub,2013-03-06 08:47:00,
2013-03-06 02:52:00,23.2,16.5,29.45,NNE,22,4.0,7.0,75,0.00,,,0.00,meteohub,2013-03-06 08:52:00,
2013-03-06 02:57:00,23.2,15.8,29.45,NNE,22,2.0,7.0,73,0.00,,,0.00,meteohub,2013-03-06 08:57:00,
2013-03-06 03:02:00,23.2,15.8,29.45,NNE,22,2.0,7.0,73,0.00,,,0.00,meteohub,2013-03-06 09:02:00,
2013-03-06 03:07:00,23.2,15.4,29.45,North,0,2.0,6.0,72,0.00,,,0.00,meteohub,2013-03-06 09:07:00,
2013-03-06 03:12:00,23.2,15.4,29.45,NNE,22,4.0,6.0,72,0.00,,,0.00,meteohub,2013-03-06 09:12:00,
2013-03-06 03:17:00,23.2,15.4,29.45,NNE,22,4.0,6.0,72,0.00,,,0.00,meteohub,2013-03-06 09:17:00,
2013-03-06 03:22:00,23.0,15.6,29.45,NNE,22,5.0,6.0,73,0.00,,,0.00,meteohub,2013-03-06 09:22:00,
2013-03-06 03:27:00,22.8,15.1,29.45,North,0,4.0,8.0,72,0.00,,,0.00,meteohub,2013-03-06 09:27:00,
2013-03-06 03:32:00,22.6,15.1,29.45,NNE,22,5.0,8.0,72,0.00,,,0.00,meteohub,2013-03-06 09:32:00,
2013-03-06 03:37:00,22.5,15.1,29.45,NNE,22,3.0,8.0,73,0.00,,,0.00,meteohub,2013-03-06 09:37:00,
2013-03-06 03:42:00,22.3,14.9,29.45,North,0,4.0,8.0,73,0.00,,,0.00,meteohub,2013-03-06 09:42:00,
2013-03-06 03:47:00,22.1,14.5,29.45,NNE,22,6.0,8.0,72,0.00,,,0.00,meteohub,2013-03-06 09:47:00,
2013-03-06 03:52:00,21.9,14.0,29.45,NNE,22,6.0,8.0,71,0.00,,,0.00,meteohub,2013-03-06 09:52:00,
2013-03-06 03:57:00,21.7,13.8,29.45,NE,45,6.0,8.0,71,0.00,,,0.00,meteohub,2013-03-06 09:57:00,
2013-03-06 04:02:00,21.6,13.6,29.45,NNE,22,6.0,9.0,71,0.00,,,0.00,meteohub,2013-03-06 10:02:00,
2013-03-06 04:07:00,21.6,13.6,29.45,NNE,22,7.0,9.0,71,0.00,,,0.00,meteohub,2013-03-06 10:07:00,
2013-03-06 04:12:00,21.6,13.6,29.45,NNE,22,6.0,9.0,71,0.00,,,0.00,meteohub,2013-03-06 10:12:00,
2013-03-06 04:17:00,21.6,14.0,29.48,NNE,22,5.0,9.0,72,0.00,,,0.00,meteohub,2013-03-06 10:17:00,
2013-03-06 04:22:00,21.6,14.0,29.48,North,0,4.0,8.0,72,0.00,,,0.00,meteohub,2013-03-06 10:22:00,
2013-03-06 04:27:00,21.6,14.0,29.48,NNE,22,5.0,6.0,72,0.00,,,0.00,meteohub,2013-03-06 10:27:00,
2013-03-06 04:32:00,21.6,14.0,29.45,NNE,22,4.0,6.0,72,0.00,,,0.00,meteohub,2013-03-06 10:32:00,
2013-03-06 04:37:00,21.4,13.8,29.45,NE,45,4.0,6.0,72,0.00,,,0.00,meteohub,2013-03-06 10:37:00,
2013-03-06 04:42:00,21.6,13.6,29.45,NNE,22,7.0,7.0,71,0.00,,,0.00,meteohub,2013-03-06 10:42:00,
2013-03-06 04:48:00,21.4,13.1,29.48,NNE,22,4.0,9.0,70,0.00,,,0.00,meteohub,2013-03-06 10:48:00,
2013-03-06 04:53:00,21.4,13.1,29.48,NNE,22,8.0,9.0,70,0.00,,,0.00,meteohub,2013-03-06 10:53:00,
2013-03-06 04:58:00,21.2,12.9,29.48,NE,45,8.0,9.0,70,0.00,,,0.00,meteohub,2013-03-06 10:58:00,
2013-03-06 05:03:00,21.2,13.3,29.48,NNE,22,4.0,9.0,71,0.00,,,0.00,meteohub,2013-03-06 11:03:00,
2013-03-06 05:08:00,21.2,13.3,29.48,NNE,22,4.0,9.0,71,0.00,,,0.00,meteohub,2013-03-06 11:08:00,
2013-03-06 05:13:00,21.2,13.3,29.48,NNE,22,4.0,9.0,71,0.00,,,0.00,meteohub,2013-03-06 11:13:00,
2013-03-06 05:18:00,21.2,13.3,29.48,NNE,22,5.0,7.0,71,0.00,,,0.00,meteohub,2013-03-06 11:18:00,
2013-03-06 05:24:00,21.2,13.3,29.48,NNE,22,4.0,6.0,71,0.00,,,0.00,meteohub,2013-03-06 11:24:00,
2013-03-06 05:29:00,21.2,13.6,29.48,NNE,22,3.0,5.0,72,0.00,,,0.00,meteohub,2013-03-06 11:29:00,
2013-03-06 05:34:00,21.2,13.6,29.48,NNE,22,3.0,5.0,72,0.00,,,0.00,meteohub,2013-03-06 11:34:00,
2013-03-06 05:39:00,21.2,13.3,29.48,NNE,22,4.0,4.0,71,0.00,,,0.00,meteohub,2013-03-06 11:39:00,
2013-03-06 05:44:00,21.4,13.1,29.48,NNW,338,4.0,5.0,70,0.00,,,0.00,meteohub,2013-03-06 11:44:00,
2013-03-06 05:49:00,21.4,13.5,29.48,NE,45,3.0,5.0,71,0.00,,,0.00,meteohub,2013-03-06 11:49:00,
2013-03-06 05:54:00,21.4,13.1,29.48,NE,45,4.0,5.0,70,0.00,,,0.00,meteohub,2013-03-06 11:54:00,
2013-03-06 06:00:00,21.4,13.1,29.48,NE,45,6.0,6.0,70,0.00,,,0.00,meteohub,2013-03-06 12:00:00,
2013-03-06 06:05:00,21.6,12.9,29.54,NNE,22,6.0,7.0,69,0.00,,,0.00,meteohub,2013-03-06 12:05:00,
2013-03-06 06:10:00,21.6,12.9,29.54,NE,45,8.0,8.0,69,0.00,,,0.00,meteohub,2013-03-06 12:10:00,
2013-03-06 06:15:00,21.6,12.9,29.54,NNE,22,5.0,8.0,69,0.00,,,0.00,meteohub,2013-03-06 12:15:00,
2013-03-06 06:20:00,21.6,12.9,29.51,NNE,22,2.0,8.0,69,0.00,,,0.00,meteohub,2013-03-06 12:20:00,
2013-03-06 06:25:00,21.6,12.9,29.51,NNE,22,4.0,8.0,69,0.00,,,0.00,meteohub,2013-03-06 12:25:00,
2013-03-06 06:30:00,21.6,13.3,29.48,NNE,22,3.0,6.0,70,0.00,,,0.00,meteohub,2013-03-06 12:30:00,
2013-03-06 06:36:00,21.6,12.9,29.48,NE,45,5.0,5.0,69,0.00,,,0.00,meteohub,2013-03-06 12:36:00,
2013-03-06 06:41:00,21.6,13.3,29.48,NNE,22,4.0,5.0,70,0.00,,,0.00,meteohub,2013-03-06 12:41:00,
2013-03-06 06:46:00,21.6,13.3,29.48,WNW,292,3.0,5.0,70,0.00,,,0.00,meteohub,2013-03-06 12:46:00,
2013-03-06 06:51:00,21.6,13.3,29.51,NNE,22,3.0,5.0,70,0.00,,,0.00,meteohub,2013-03-06 12:51:00,
2013-03-06 06:56:00,21.7,13.1,29.51,NNE,22,4.0,4.0,69,0.00,,,0.00,meteohub,2013-03-06 12:56:00,
2013-03-06 07:01:00,21.7,13.5,29.51,NNE,22,4.0,5.0,70,0.00,,,0.00,meteohub,2013-03-06 13:01:00,
2013-03-06 07:07:00,21.7,13.5,29.51,NE,45,4.0,5.0,70,0.00,,,0.00,meteohub,2013-03-06 13:07:00,
2013-03-06 07:12:00,21.9,13.6,29.51,NNE,22,4.0,5.0,70,0.00,,,0.00,meteohub,2013-03-06 13:12:00,
2013-03-06 07:17:00,21.9,13.6,29.51,North,0,4.0,5.0,70,0.00,,,0.00,meteohub,2013-03-06 13:17:00,
2013-03-06 07:22:00,21.9,13.6,29.51,NE,45,3.0,5.0,70,0.00,,,0.00,meteohub,2013-03-06 13:22:00,
2013-03-06 07:27:00,22.1,13.8,29.51,NNE,22,3.0,5.0,70,0.00,,,0.00,meteohub,2013-03-06 13:27:00,
2013-03-06 07:32:00,22.1,13.8,29.54,North,0,3.0,4.0,70,0.00,,,0.00,meteohub,2013-03-06 13:32:00,
2013-03-06 07:37:00,22.3,14.0,29.54,NNE,22,4.0,4.0,70,0.00,,,0.00,meteohub,2013-03-06 13:37:00,
2013-03-06 07:43:00,22.3,13.6,29.54,NNE,22,4.0,4.0,69,0.00,,,0.00,meteohub,2013-03-06 13:43:00,
2013-03-06 07:48:00,22.3,13.6,29.51,NNE,22,3.0,5.0,69,0.00,,,0.00,meteohub,2013-03-06 13:48:00,
2013-03-06 07:53:00,22.3,13.6,29.51,NNE,22,4.0,5.0,69,0.00,,,0.00,meteohub,2013-03-06 13:53:00,
2013-03-06 07:58:00,22.5,13.5,29.51,NNE,22,4.0,6.0,68,0.00,,,0.00,meteohub,2013-03-06 13:58:00,
2013-03-06 08:03:00,22.6,13.6,29.51,NNE,22,4.0,6.0,68,0.00,,,0.00,meteohub,2013-03-06 14:03:00,
2013-03-06 08:08:00,22.8,13.8,29.51,NE,45,3.0,6.0,68,0.00,,,0.00,meteohub,2013-03-06 14:08:00,
2013-03-06 08:13:00,22.8,13.8,29.51,NE,45,6.0,6.0,68,0.00,,,0.00,meteohub,2013-03-06 14:13:00,
2013-03-06 08:19:00,23.0,13.6,29.51,NE,45,3.0,6.0,67,0.00,,,0.00,meteohub,2013-03-06 14:19:00,
2013-03-06 08:24:00,23.2,13.5,29.51,NNE,22,3.0,6.0,66,0.00,,,0.00,meteohub,2013-03-06 14:24:00,
2013-03-06 08:29:00,23.2,13.1,29.51,NW,315,6.0,6.0,65,0.00,,,0.00,meteohub,2013-03-06 14:29:00,
2013-03-06 08:34:00,23.4,12.9,29.54,North,0,4.0,8.0,64,0.00,,,0.00,meteohub,2013-03-06 14:34:00,
2013-03-06 08:39:00,23.7,13.3,29.54,North,0,2.0,9.0,64,0.00,,,0.00,meteohub,2013-03-06 14:39:00,
2013-03-06 08:44:00,23.9,13.5,29.54,NNE,22,4.0,9.0,64,0.00,,,0.00,meteohub,2013-03-06 14:44:00,
2013-03-06 08:49:00,24.3,13.1,29.54,NNE,22,4.0,9.0,62,0.00,,,0.00,meteohub,2013-03-06 14:49:00,
2013-03-06 08:55:00,24.4,13.3,29.54,NNE,22,4.0,9.0,62,0.00,,,0.00,meteohub,2013-03-06 14:55:00,
2013-03-06 09:00:00,24.8,13.6,29.54,North,0,3.0,6.0,62,0.00,,,0.00,meteohub,2013-03-06 15:00:00,
2013-03-06 09:05:00,25.3,13.8,29.54,NNE,22,4.0,6.0,61,0.00,,,0.00,meteohub,2013-03-06 15:05:00,
2013-03-06 09:10:00,25.3,13.8,29.54,NNE,22,3.0,6.0,61,0.00,,,0.00,meteohub,2013-03-06 15:10:00,
2013-03-06 09:16:00,24.8,12.9,29.54,NNE,22,6.0,6.0,60,0.00,,,0.00,meteohub,2013-03-06 15:16:00,
2013-03-06 09:21:00,25.3,13.5,29.54,NNE,22,3.0,6.0,60,0.00,,,0.00,meteohub,2013-03-06 15:21:00,
2013-03-06 09:26:00,25.5,13.3,29.54,NE,45,5.0,6.0,59,0.00,,,0.00,meteohub,2013-03-06 15:26:00,
2013-03-06 09:31:00,25.9,13.5,29.54,NNE,22,5.0,6.0,59,0.00,,,0.00,meteohub,2013-03-06 15:31:00,
2013-03-06 09:36:00,26.1,13.6,29.54,ENE,68,5.0,6.0,59,0.00,,,0.00,meteohub,2013-03-06 15:36:00,
2013-03-06 09:42:00,26.6,14.2,29.54,NE,45,4.0,6.0,59,0.00,,,0.00,meteohub,2013-03-06 15:42:00,
2013-03-06 09:47:00,26.4,13.6,29.54,NE,45,4.0,6.0,58,0.00,,,0.00,meteohub,2013-03-06 15:47:00,
2013-03-06 09:52:00,27.0,14.2,29.51,NNE,22,6.0,6.0,58,0.00,,,0.00,meteohub,2013-03-06 15:52:00,
2013-03-06 09:57:00,27.0,13.8,29.51,NE,45,5.0,6.0,57,0.00,,,0.00,meteohub,2013-03-06 15:57:00,
2013-03-06 10:02:00,27.1,14.0,29.51,NNE,22,4.0,6.0,57,0.00,,,0.00,meteohub,2013-03-06 16:02:00,
2013-03-06 10:07:00,27.3,13.6,29.51,NNE,22,5.0,6.0,56,0.00,,,0.00,meteohub,2013-03-06 16:07:00,
2013-03-06 10:12:00,26.8,13.3,29.51,NE,45,6.0,6.0,56,0.00,,,0.00,meteohub,2013-03-06 16:12:00,
2013-03-06 10:17:00,27.0,13.5,29.51,NNE,22,6.0,6.0,56,0.00,,,0.00,meteohub,2013-03-06 16:17:00,
2013-03-06 10:22:00,27.5,13.8,29.51,NNE,22,3.0,6.0,56,0.00,,,0.00,meteohub,2013-03-06 16:22:00,
2013-03-06 10:27:00,27.9,14.2,29.51,NE,45,4.0,6.0,56,0.00,,,0.00,meteohub,2013-03-06 16:27:00,
2013-03-06 10:32:00,27.5,13.5,29.51,NNE,22,5.0,6.0,55,0.00,,,0.00,meteohub,2013-03-06 16:32:00,
2013-03-06 10:37:00,27.9,13.8,29.51,NNE,22,4.0,6.0,55,0.00,,,0.00,meteohub,2013-03-06 16:37:00,
2013-03-06 10:42:00,28.2,13.8,29.51,NNE,22,5.0,6.0,54,0.00,,,0.00,meteohub,2013-03-06 16:42:00,
2013-03-06 10:47:00,29.8,15.3,29.51,North,0,2.0,6.0,54,0.00,,,0.00,meteohub,2013-03-06 16:47:00,
2013-03-06 10:52:00,30.4,15.3,29.51,NNE,22,4.0,6.0,53,0.00,,,0.00,meteohub,2013-03-06 16:52:00,
2013-03-06 10:57:00,28.8,13.5,29.51,NE,45,7.0,7.0,52,0.00,,,0.00,meteohub,2013-03-06 16:57:00,
2013-03-06 11:02:00,28.9,14.0,29.51,NE,45,4.0,8.0,53,0.00,,,0.00,meteohub,2013-03-06 17:02:00,
2013-03-06 11:07:00,28.9,13.5,29.51,NE,45,6.0,8.0,52,0.00,,,0.00,meteohub,2013-03-06 17:07:00,
2013-03-06 11:12:00,29.5,14.0,29.51,NNW,338,4.0,8.0,52,0.00,,,0.00,meteohub,2013-03-06 17:12:00,
2013-03-06 11:17:00,29.8,14.4,29.51,NNW,338,4.0,6.0,52,0.00,,,0.00,meteohub,2013-03-06 17:17:00,
2013-03-06 11:22:00,29.8,14.4,29.51,NNE,22,2.0,6.0,52,0.00,,,0.00,meteohub,2013-03-06 17:22:00,
2013-03-06 11:27:00,31.1,15.1,29.51,NNE,22,4.0,6.0,51,0.00,,,0.00,meteohub,2013-03-06 17:27:00,
2013-03-06 11:32:00,32.0,16.0,29.51,NNE,22,2.0,6.0,51,0.00,,,0.00,meteohub,2013-03-06 17:32:00,
2013-03-06 11:37:00,32.2,16.2,29.51,NNW,338,1.0,6.0,51,0.00,,,0.00,meteohub,2013-03-06 17:37:00,
2013-03-06 11:42:00,32.0,16.0,29.51,NNE,22,4.0,6.0,51,0.00,,,0.00,meteohub,2013-03-06 17:42:00,
2013-03-06 11:47:00,31.8,15.8,29.51,NW,315,2.0,5.0,51,0.00,,,0.00,meteohub,2013-03-06 17:47:00,
2013-03-06 11:52:00,31.5,15.4,29.51,West,270,4.0,5.0,51,0.00,,,0.00,meteohub,2013-03-06 17:52:00,
2013-03-06 11:57:00,30.9,14.5,29.51,NE,45,5.0,9.0,50,0.00,,,0.00,meteohub,2013-03-06 17:57:00,
2013-03-06 12:02:00,32.2,15.6,29.51,NNE,22,3.0,9.0,50,0.00,,,0.00,meteohub,2013-03-06 18:02:00,
2013-03-06 12:07:00,32.7,16.2,29.51,NE,45,4.0,7.0,50,0.00,,,0.00,meteohub,2013-03-06 18:07:00,
2013-03-06 12:12:00,32.4,15.8,29.51,NW,315,5.0,6.0,50,0.00,,,0.00,meteohub,2013-03-06 18:12:00,
2013-03-06 12:17:00,33.6,17.1,29.51,NNE,22,2.0,5.0,50,0.00,,,0.00,meteohub,2013-03-06 18:17:00,
2013-03-06 12:22:00,33.1,16.0,29.51,West,270,4.0,5.0,49,0.00,,,0.00,meteohub,2013-03-06 18:22:00,
2013-03-06 12:27:00,32.2,15.3,29.51,WNW,292,4.0,6.0,49,0.00,,,0.00,meteohub,2013-03-06 18:27:00,
2013-03-06 12:32:00,33.1,16.0,29.51,West,270,4.0,6.0,49,0.00,,,0.00,meteohub,2013-03-06 18:32:00,
2013-03-06 12:37:00,33.1,16.0,29.51,NW,315,3.0,6.0,49,0.00,,,0.00,meteohub,2013-03-06 18:37:00,
2013-03-06 12:42:00,35.1,18.0,29.51,NNW,338,3.0,6.0,49,0.00,,,0.00,meteohub,2013-03-06 18:42:00,
2013-03-06 12:47:00,34.3,16.3,29.54,WSW,248,3.0,6.0,47,0.00,,,0.00,meteohub,2013-03-06 18:47:00,
2013-03-06 12:52:00,34.7,17.1,29.54,SSW,202,1.0,5.0,48,0.00,,,0.00,meteohub,2013-03-06 18:52:00,
2013-03-06 12:57:00,34.5,16.0,29.54,ENE,68,4.0,5.0,46,0.00,,,0.00,meteohub,2013-03-06 18:57:00,
2013-03-06 13:02:00,33.8,15.8,29.51,WNW,292,4.0,5.0,47,0.00,,,0.00,meteohub,2013-03-06 19:02:00,
2013-03-06 13:07:00,33.8,15.8,29.51,NW,315,3.0,6.0,47,0.00,,,0.00,meteohub,2013-03-06 19:07:00,
2013-03-06 13:12:00,35.1,16.9,29.51,NNW,338,2.0,6.0,47,0.00,,,0.00,meteohub,2013-03-06 19:12:00,
2013-03-06 13:17:00,33.8,15.3,29.51,North,0,2.0,6.0,46,0.00,,,0.00,meteohub,2013-03-06 19:17:00,
2013-03-06 13:22:00,34.3,15.8,29.51,NNE,22,4.0,6.0,46,0.00,,,0.00,meteohub,2013-03-06 19:22:00,
2013-03-06 13:27:00,33.8,15.3,29.51,NNE,22,3.0,6.0,46,0.00,,,0.00,meteohub,2013-03-06 19:27:00,
2013-03-06 13:32:00,34.7,16.2,29.48,NNE,22,2.0,6.0,46,0.00,,,0.00,meteohub,2013-03-06 19:32:00,
2013-03-06 13:37:00,35.6,16.9,29.48,NNE,22,4.0,5.0,46,0.00,,,0.00,meteohub,2013-03-06 19:37:00,
2013-03-06 13:42:00,35.4,16.7,29.48,NW,315,1.0,4.0,46,0.00,,,0.00,meteohub,2013-03-06 19:42:00,
2013-03-06 13:47:00,35.8,16.5,29.48,NNW,338,2.0,4.0,45,0.00,,,0.00,meteohub,2013-03-06 19:47:00,
2013-03-06 13:53:00,35.1,16.3,29.48,NW,315,3.0,5.0,46,0.00,,,0.00,meteohub,2013-03-06 19:53:00,
2013-03-06 13:58:00,34.3,15.3,29.48,WNW,292,6.0,6.0,45,0.00,,,0.00,meteohub,2013-03-06 19:58:00,
2013-03-06 14:03:00,34.5,15.4,29.48,NW,315,3.0,6.0,45,0.00,,,0.00,meteohub,2013-03-06 20:03:00,
2013-03-06 14:08:00,34.9,15.8,29.48,NNE,22,4.0,6.0,45,0.00,,,0.00,meteohub,2013-03-06 20:08:00,
2013-03-06 14:13:00,35.8,16.5,29.48,NE,45,2.0,6.0,45,0.00,,,0.00,meteohub,2013-03-06 20:13:00,
2013-03-06 14:18:00,35.6,16.0,29.48,NE,45,1.0,5.0,44,0.00,,,0.00,meteohub,2013-03-06 20:18:00,
2013-03-06 14:24:00,35.4,16.2,29.48,WNW,292,6.0,6.0,45,0.00,,,0.00,meteohub,2013-03-06 20:24:00,
2013-03-06 14:29:00,35.8,16.0,29.48,NNE,22,5.0,6.0,44,0.00,,,0.00,meteohub,2013-03-06 20:29:00,
2013-03-06 14:34:00,33.6,15.1,29.45,NNE,22,3.0,6.0,46,0.00,,,0.00,meteohub,2013-03-06 20:34:00,
2013-03-06 14:39:00,35.1,16.3,29.45,NE,45,2.0,6.0,46,0.00,,,0.00,meteohub,2013-03-06 20:39:00,
2013-03-06 14:44:00,33.1,14.5,29.45,NNE,22,4.0,6.0,46,0.00,,,0.00,meteohub,2013-03-06 20:44:00,
2013-03-06 14:50:00,32.5,14.2,29.48,NNE,22,6.0,6.0,46,0.00,,,0.00,meteohub,2013-03-06 20:50:00,
2013-03-06 14:55:00,31.1,13.3,29.48,NNE,22,4.0,6.0,47,0.00,,,0.00,meteohub,2013-03-06 20:55:00,
2013-03-06 15:00:00,31.8,14.0,29.48,NNE,22,3.0,6.0,47,0.00,,,0.00,meteohub,2013-03-06 21:00:00,
2013-03-06 15:05:00,32.4,14.4,29.45,NE,45,0.0,6.0,47,0.00,,,0.00,meteohub,2013-03-06 21:05:00,
2013-03-06 15:10:00,32.2,14.4,29.45,NE,45,2.0,5.0,47,0.00,,,0.00,meteohub,2013-03-06 21:10:00,
2013-03-06 15:15:00,30.6,13.3,29.45,NNE,22,3.0,4.0,48,0.00,,,0.00,meteohub,2013-03-06 21:15:00,
2013-03-06 15:21:00,33.1,16.0,29.45,NE,45,3.0,4.0,49,0.00,,,0.00,meteohub,2013-03-06 21:21:00,
2013-03-06 15:26:00,37.0,19.2,29.45,NE,45,3.0,4.0,48,0.00,,,0.00,meteohub,2013-03-06 21:26:00,
2013-03-06 15:31:00,40.6,21.0,29.45,NE,45,2.0,4.0,45,0.00,,,0.00,meteohub,2013-03-06 21:31:00,
2013-03-06 15:36:00,37.2,18.0,29.45,North,0,3.0,4.0,45,0.00,,,0.00,meteohub,2013-03-06 21:36:00,
2013-03-06 15:41:00,35.1,16.0,29.45,NNE,22,3.0,4.0,45,0.00,,,0.00,meteohub,2013-03-06 21:41:00,
2013-03-06 15:46:00,36.1,16.9,29.45,WNW,292,1.0,4.0,45,0.00,,,0.00,meteohub,2013-03-06 21:46:00,
2013-03-06 15:51:00,38.8,19.4,29.45,North,0,2.0,5.0,45,0.00,,,0.00,meteohub,2013-03-06 21:51:00,
2013-03-06 15:57:00,35.2,15.6,29.45,West,270,4.0,6.0,44,0.00,,,0.00,meteohub,2013-03-06 21:57:00,
2013-03-06 16:02:00,33.8,14.7,29.45,North,0,3.0,9.0,45,0.00,,,0.00,meteohub,2013-03-06 22:02:00,
2013-03-06 16:07:00,33.1,14.5,29.48,NW,315,3.0,9.0,46,0.00,,,0.00,meteohub,2013-03-06 22:07:00,
2013-03-06 16:12:00,31.8,13.5,29.48,NW,315,3.0,9.0,46,0.00,,,0.00,meteohub,2013-03-06 22:12:00,
2013-03-06 16:17:00,30.6,12.7,29.48,West,270,3.0,6.0,47,0.00,,,0.00,meteohub,2013-03-06 22:17:00,
2013-03-06 16:22:00,30.6,12.7,29.48,North,0,3.0,6.0,47,0.00,,,0.00,meteohub,2013-03-06 22:22:00,
2013-03-06 16:27:00,30.6,13.3,29.48,WSW,248,3.0,6.0,48,0.00,,,0.00,meteohub,2013-03-06 22:27:00,
2013-03-06 16:32:00,30.2,12.9,29.45,WNW,292,3.0,5.0,48,0.00,,,0.00,meteohub,2013-03-06 22:32:00,
2013-03-06 16:37:00,29.8,13.1,29.45,WSW,248,4.0,4.0,49,0.00,,,0.00,meteohub,2013-03-06 22:37:00,
2013-03-06 16:42:00,29.5,13.1,29.45,West,270,6.0,6.0,50,0.00,,,0.00,meteohub,2013-03-06 22:42:00,
2013-03-06 16:47:00,28.9,13.1,29.45,NW,315,3.0,6.0,51,0.00,,,0.00,meteohub,2013-03-06 22:47:00,
2013-03-06 16:52:00,28.4,12.6,29.48,WNW,292,4.0,6.0,51,0.00,,,0.00,meteohub,2013-03-06 22:52:00,
2013-03-06 16:57:00,28.2,12.9,29.48,West,270,3.0,6.0,52,0.00,,,0.00,meteohub,2013-03-06 22:57:00,
2013-03-06 17:02:00,27.9,12.6,29.48,WSW,248,4.0,5.0,52,0.00,,,0.00,meteohub,2013-03-06 23:02:00,
2013-03-06 17:07:00,27.9,12.9,29.48,West,270,3.0,5.0,53,0.00,,,0.00,meteohub,2013-03-06 23:07:00,
2013-03-06 17:12:00,27.5,13.1,29.48,NNW,338,2.0,8.0,54,0.00,,,0.00,meteohub,2013-03-06 23:12:00,
2013-03-06 17:17:00,27.1,12.7,29.48,West,270,2.0,8.0,54,0.00,,,0.00,meteohub,2013-03-06 23:17:00,
2013-03-06 17:22:00,26.8,12.7,29.48,West,270,3.0,8.0,55,0.00,,,0.00,meteohub,2013-03-06 23:22:00,
2013-03-06 17:27:00,26.6,12.6,29.48,WNW,292,4.0,6.0,55,0.00,,,0.00,meteohub,2013-03-06 23:27:00,
2013-03-06 17:32:00,26.4,12.4,29.45,West,270,3.0,6.0,55,0.00,,,0.00,meteohub,2013-03-06 23:32:00,
2013-03-06 17:37:00,26.2,12.7,29.45,WNW,292,4.0,4.0,56,0.00,,,0.00,meteohub,2013-03-06 23:37:00,
2013-03-06 17:42:00,26.1,12.6,29.45,WNW,292,3.0,6.0,56,0.00,,,0.00,meteohub,2013-03-06 23:42:00,
2013-03-06 17:47:00,25.7,12.6,29.45,WNW,292,4.0,6.0,57,0.00,,,0.00,meteohub,2013-03-06 23:47:00,
2013-03-06 17:52:00,25.3,12.2,29.45,West,270,5.0,6.0,57,0.00,,,0.00,meteohub,2013-03-06 23:52:00,
2013-03-06 17:57:00,25.2,12.0,29.45,WNW,292,2.0,6.0,57,0.00,,,0.00,meteohub,2013-03-06 23:57:00,
2013-03-06 18:02:00,24.8,12.2,29.48,NW,315,4.0,6.0,58,0.00,,,0.00,meteohub,2013-03-07 00:02:00,
2013-03-06 18:08:00,24.6,12.0,29.48,WNW,292,3.0,5.0,58,0.00,,,0.00,meteohub,2013-03-07 00:08:00,
2013-03-06 18:13:00,24.4,11.8,29.48,WSW,248,3.0,4.0,58,0.00,,,0.00,meteohub,2013-03-07 00:13:00,
2013-03-06 18:18:00,24.3,12.0,29.48,WNW,292,3.0,4.0,59,0.00,,,0.00,meteohub,2013-03-07 00:18:00,
2013-03-06 18:23:00,23.9,12.0,29.48,WNW,292,3.0,4.0,60,0.00,,,0.00,meteohub,2013-03-07 00:23:00,
2013-03-06 18:28:00,23.7,11.8,29.48,WNW,292,3.0,5.0,60,0.00,,,0.00,meteohub,2013-03-07 00:28:00,
2013-03-06 18:33:00,23.7,12.2,29.48,West,270,4.0,6.0,61,0.00,,,0.00,meteohub,2013-03-07 00:33:00,
2013-03-06 18:38:00,23.5,12.4,29.48,WSW,248,3.0,6.0,62,0.00,,,0.00,meteohub,2013-03-07 00:38:00,
2013-03-06 18:44:00,23.4,12.2,29.48,SW,225,1.0,6.0,62,0.00,,,0.00,meteohub,2013-03-07 00:44:00,
2013-03-06 18:49:00,23.2,12.6,29.48,WSW,248,2.0,4.0,63,0.00,,,0.00,meteohub,2013-03-07 00:49:00,
2013-03-06 18:54:00,23.0,12.7,29.48,West,270,3.0,4.0,64,0.00,,,0.00,meteohub,2013-03-07 00:54:00,
2013-03-06 18:59:00,23.0,12.7,29.48,SW,225,0.0,4.0,64,0.00,,,0.00,meteohub,2013-03-07 00:59:00,
2013-03-06 19:04:00,23.0,12.7,29.45,West,270,3.0,4.0,64,0.00,,,0.00,meteohub,2013-03-07 01:04:00,
2013-03-06 19:10:00,22.8,12.6,29.45,West,270,2.0,3.0,64,0.00,,,0.00,meteohub,2013-03-07 01:10:00,
2013-03-06 19:15:00,22.6,12.4,29.45,West,270,2.0,3.0,64,0.00,,,0.00,meteohub,2013-03-07 01:15:00,
2013-03-06 19:20:00,22.5,12.6,29.45,SW,225,2.0,3.0,65,0.00,,,0.00,meteohub,2013-03-07 01:20:00,
2013-03-06 19:25:00,22.3,12.0,29.45,SW,225,0.0,3.0,64,0.00,,,0.00,meteohub,2013-03-07 01:25:00,
2013-03-06 19:30:00,22.1,11.8,29.45,WSW,248,2.0,3.0,64,0.00,,,0.00,meteohub,2013-03-07 01:30:00,
2013-03-06 19:36:00,21.9,12.0,29.45,WSW,248,0.0,2.0,65,0.00,,,0.00,meteohub,2013-03-07 01:36:00,
2013-03-06 19:41:00,21.9,12.0,29.45,West,270,0.0,2.0,65,0.00,,,0.00,meteohub,2013-03-07 01:41:00,
2013-03-06 19:46:00,21.9,12.4,29.48,SW,225,0.0,2.0,66,0.00,,,0.00,meteohub,2013-03-07 01:46:00,
2013-03-06 19:51:00,21.7,12.6,29.48,WSW,248,2.0,3.0,67,0.00,,,0.00,meteohub,2013-03-07 01:51:00,
2013-03-06 19:56:00,21.7,12.2,29.48,West,270,0.0,3.0,66,0.00,,,0.00,meteohub,2013-03-07 01:56:00,
2013-03-06 20:01:00,21.6,12.4,29.48,WSW,248,2.0,3.0,67,0.00,,,0.00,meteohub,2013-03-07 02:01:00,
2013-03-06 20:06:00,21.6,12.4,29.48,WSW,248,2.0,3.0,67,0.00,,,0.00,meteohub,2013-03-07 02:06:00,
2013-03-06 20:12:00,21.4,12.6,29.48,WNW,292,2.0,3.0,68,0.00,,,0.00,meteohub,2013-03-07 02:12:00,
2013-03-06 20:17:00,21.2,12.4,29.48,West,270,0.0,3.0,68,0.00,,,0.00,meteohub,2013-03-07 02:17:00,
2013-03-06 20:22:00,21.0,12.7,29.48,WSW,248,2.0,3.0,70,0.00,,,0.00,meteohub,2013-03-07 02:22:00,
2013-03-06 20:27:00,20.8,12.6,29.48,WNW,292,2.0,4.0,70,0.00,,,0.00,meteohub,2013-03-07 02:27:00,
2013-03-06 20:32:00,20.7,12.2,29.45,West,270,1.0,4.0,69,0.00,,,0.00,meteohub,2013-03-07 02:32:00,
2013-03-06 20:37:00,20.5,12.2,29.45,WNW,292,2.0,3.0,70,0.00,,,0.00,meteohub,2013-03-07 02:37:00,
2013-03-06 20:42:00,20.3,11.8,29.45,WNW,292,2.0,3.0,69,0.00,,,0.00,meteohub,2013-03-07 02:42:00,
2013-03-06 20:47:00,19.9,11.8,29.45,West,270,0.0,3.0,70,0.00,,,0.00,meteohub,2013-03-07 02:47:00,
2013-03-06 20:52:00,19.8,12.2,29.45,West,270,2.0,3.0,72,0.00,,,0.00,meteohub,2013-03-07 02:52:00,
2013-03-06 20:57:00,19.8,12.6,29.45,West,270,2.0,3.0,73,0.00,,,0.00,meteohub,2013-03-07 02:57:00,
2013-03-06 21:02:00,19.6,12.0,29.45,WNW,292,3.0,3.0,72,0.00,,,0.00,meteohub,2013-03-07 03:02:00,
2013-03-06 21:07:00,19.4,12.6,29.45,WNW,292,2.0,3.0,74,0.00,,,0.00,meteohub,2013-03-07 03:07:00,
2013-03-06 21:12:00,19.2,12.4,29.45,WNW,292,2.0,3.0,74,0.00,,,0.00,meteohub,2013-03-07 03:12:00,
2013-03-06 21:17:00,19.0,12.2,29.45,NW,315,0.0,3.0,74,0.00,,,0.00,meteohub,2013-03-07 03:17:00,
2013-03-06 21:22:00,18.7,11.8,29.45,NW,315,1.0,2.0,74,0.00,,,0.00,meteohub,2013-03-07 03:22:00,
2013-03-06 21:27:00,18.5,11.7,29.45,NW,315,1.0,2.0,74,0.00,,,0.00,meteohub,2013-03-07 03:27:00,
2013-03-06 21:32:00,18.3,11.5,29.45,West,270,0.0,2.0,74,0.00,,,0.00,meteohub,2013-03-07 03:32:00,
2013-03-06 21:37:00,17.6,10.8,29.45,North,0,0.0,2.0,74,0.00,,,0.00,meteohub,2013-03-07 03:37:00,
2013-03-06 21:42:00,17.1,10.2,29.45,NNE,22,0.0,2.0,74,0.00,,,0.00,meteohub,2013-03-07 03:42:00,
2013-03-06 21:47:00,16.5,9.3,29.45,NE,45,2.0,2.0,73,0.00,,,0.00,meteohub,2013-03-07 03:47:00,
2013-03-06 21:52:00,16.2,9.1,29.45,NNE,22,0.0,2.0,73,0.00,,,0.00,meteohub,2013-03-07 03:52:00,
2013-03-06 21:57:00,15.8,8.8,29.45,NNE,22,0.0,2.0,73,0.00,,,0.00,meteohub,2013-03-07 03:57:00,
2013-03-06 22:02:00,15.4,8.6,29.45,NNE,22,0.0,2.0,74,0.00,,,0.00,meteohub,2013-03-07 04:02:00,
2013-03-06 22:07:00,15.3,9.1,29.45,NNE,22,0.0,2.0,76,0.00,,,0.00,meteohub,2013-03-07 04:07:00,
2013-03-06 22:12:00,14.9,8.8,29.45,NNE,22,0.0,1.0,76,0.00,,,0.00,meteohub,2013-03-07 04:12:00,
2013-03-06 22:17:00,14.9,9.0,29.48,NNE,22,0.0,0.0,77,0.00,,,0.00,meteohub,2013-03-07 04:17:00,
2013-03-06 22:22:00,15.1,9.0,29.48,NNE,22,1.0,2.0,76,0.00,,,0.00,meteohub,2013-03-07 04:22:00,
2013-03-06 22:27:00,14.7,8.6,29.48,NNE,22,0.0,2.0,76,0.00,,,0.00,meteohub,2013-03-07 04:27:00,
2013-03-06 22:32:00,14.5,8.4,29.48,NE,45,0.0,2.0,76,0.00,,,0.00,meteohub,2013-03-07 04:32:00,
2013-03-06 22:37:00,14.5,8.4,29.48,NNE,22,0.0,2.0,76,0.00,,,0.00,meteohub,2013-03-07 04:37:00,
2013-03-06 22:42:00,14.7,8.6,29.48,NNE,22,1.0,0.0,76,0.00,,,0.00,meteohub,2013-03-07 04:42:00,
2013-03-06 22:47:00,14.4,8.4,29.48,NNE,22,0.0,2.0,77,0.00,,,0.00,meteohub,2013-03-07 04:47:00,
2013-03-06 22:52:00,14.5,9.0,29.48,NNW,338,0.0,2.0,78,0.00,,,0.00,meteohub,2013-03-07 04:52:00,
2013-03-06 22:57:00,14.4,9.1,29.48,North,0,0.0,2.0,79,0.00,,,0.00,meteohub,2013-03-07 04:57:00,
2013-03-06 23:00:00,14.2,9.0,29.48,NNE,22,0.0,0.0,79,0.00,,,0.00,meteohub,2013-03-07 05:00:00,
2013-03-06 23:01:00,14.2,9.0,29.48,NNE,22,0.0,0.0,79,0.00,,,0.00,meteohub,2013-03-07 05:01:00,
2013-03-06 23:03:00,14.2,9.0,29.48,NW,315,0.0,0.0,79,0.00,,,0.00,meteohub,2013-03-07 05:03:00,
2013-03-06 23:08:00,14.4,9.1,29.48,West,270,0.0,0.0,79,0.00,,,0.00,meteohub,2013-03-07 05:08:00,
2013-03-06 23:13:00,14.4,8.8,29.48,SW,225,0.0,0.0,78,0.00,,,0.00,meteohub,2013-03-07 05:13:00,
2013-03-06 23:18:00,14.5,9.0,29.48,SW,225,2.0,2.0,78,0.00,,,0.00,meteohub,2013-03-07 05:18:00,
2013-03-06 23:23:00,14.5,9.3,29.48,SW,225,0.0,2.0,79,0.00,,,0.00,meteohub,2013-03-07 05:23:00,
2013-03-06 23:29:00,14.5,9.3,29.48,NW,315,0.0,2.0,79,0.00,,,0.00,meteohub,2013-03-07 05:29:00,
2013-03-06 23:34:00,14.5,9.5,29.48,NNE,22,2.0,2.0,80,0.00,,,0.00,meteohub,2013-03-07 05:34:00,
2013-03-06 23:39:00,14.2,9.1,29.48,NNE,22,0.0,2.0,80,0.00,,,0.00,meteohub,2013-03-07 05:39:00,
2013-03-06 23:44:00,14.4,9.3,29.48,NNE,22,0.0,2.0,80,0.00,,,0.00,meteohub,2013-03-07 05:44:00,
2013-03-06 23:50:00,13.8,8.8,29.48,NNE,22,0.0,2.0,80,0.00,,,0.00,meteohub,2013-03-07 05:50:00,
2013-03-06 23:55:00,13.3,8.2,29.48,North,0,0.0,2.0,80,0.00,,,0.00,meteohub,2013-03-07 05:55:00,